Regional Weather Roundup
Issued by NWS

Home | Current Version | Previous Version | Graphics & Text | Print | Product List | Glossary On
Versions: 1 2 3 4 5 6 7 8 9 10 11 12 13 14 15 16 17 18 19 20 21 22 23 24 25 26 27 28 29 30 31 32 33 34 35 36 37 38 39 40 41 42 43 44 45 46 47 48 49 50
000
ASUS43 KMPX 221301
RWRMN
WEATHER ROUNDUP FOR MINNESOTA
NATIONAL WEATHER SERVICE TWIN CITIES/CHANHASSEN MN
800 AM CDT FRI SEP 22 2017


NOTE: "FAIR" INDICATES FEW OR NO CLOUDS BELOW 12,000 FEET WITH NO
SIGNIFICANT WEATHER AND/OR OBSTRUCTIONS TO VISIBILITY. N/A MEANS
CURRENT SKY AND/OR WEATHER CONDITIONS ARE NOT AVAILABLE.

MNZ060>063-068>070-221400-
   Twin Cities Metro

CITY           SKY/WX    TMP DP  RH WIND       PRES   REMARKS
TWIN CITIES    CLOUDY    74  71  91 SE7       29.84S
ST PAUL        CLOUDY    73  71  93 SE7       29.85R
CRYSTAL        CLOUDY    74  67  78 SE9       29.82R
BLAINE         CLOUDY    75  70  83 S9        29.84R
LAKEVILLE      CLOUDY    72  72 100 SE5       29.85R
EDEN PRAIRIE   CLOUDY    74  70  87 E8        29.82R
SOUTH ST PAUL  CLOUDY    73  69  86 SE3       29.85R
LAKE ELMO      FAIR      73  70  88 S8        29.87R
$$
MNZ001>005-007-008-013>017-022>024-027-028-221400-
   Northwest Minnesota

CITY           SKY/WX    TMP DP  RH WIND       PRES   REMARKS
BEMIDJI        FOG       63  63 100 CALM      29.79F VSB 1/2
HALLOCK          N/A     55  52  88 N13       29.84S
ROSEAU           N/A     55  52  88 N9        29.85R
WARROAD        CLOUDY    55  52  88 NW6       29.85R
CROOKSTON      CLOUDY    61  55  82 N6        29.81R
FOSSTON        PTCLDY    61  59  94 N6        29.79F FOG
DETROIT LAKES  CLOUDY    68  64  88 CALM      29.79S FOG
MOORHEAD       MOCLDY    64  64 100 N9        29.75F FOG
PARK RAPIDS    CLOUDY    68  66  93 S7        29.79F
MAHNOMEN       FOG       62  62  99 N6        29.78S VSB 3/4
$$
MNZ006-009>011-018-025>026-221400-
   North Central Minnesota

CITY           SKY/WX    TMP DP  RH WIND       PRES   REMARKS
BAUDETTE       CLOUDY    59  59 100 N5        29.82F
FLAG ISLAND    CLOUDY    57  55  94 N7        29.84S
INTL FALLS     CLOUDY    62  60  93 NE5       29.82F
WASKISH        CLOUDY    61  61 100 NE3       29.79F FOG
BIG FORK       CLOUDY    70  66  88 CALM      29.78R
LONGVILLE      CLOUDY    63  61  94 S3        29.79R
GRAND RAPIDS   CLOUDY    65  61  87 SE8       29.77F
CRANE LAKE     CLOUDY    57  57 100 CALM      29.88S
ORR            CLOUDY    63  59  88 NW3       29.81F
COOK           LGT RAIN  68  61  77 SE12G20   29.78F
WALKER         FAIR      66  65  97 SW6       29.78F
$$
MNZ012-019>021-037-221400-
   Northeast Minnesota

CITY           SKY/WX    TMP DP  RH WIND       PRES   REMARKS
DULUTH         TSTM      65  63  93 E9        29.91F
ELY            RAIN      64  64 100 SW14G23   29.94R
HIBBING        LGT RAIN  67  59  75 E14G22    29.81F
EVELETH        CLOUDY    64  59  83 CALM      29.96F
DULUTH HARBOR  TSTM      64  63  94 S9G21     29.97R
GRAND MARAIS     N/A     62  61  96 SW5       29.90R
$$
MNZ029>031-032-039>041-046>048-054>057-064-221400-
   West Central Minnesota

CITY           SKY/WX    TMP DP  RH WIND       PRES   REMARKS
FERGUS FALLS   PTCLDY    66  61  82 E10       29.75R
WHEATON        PTCLDY    72  64  78 E10       29.74R
MORRIS         CLOUDY    73  72  94 E9        29.74S
ALEXANDRIA     CLOUDY    70  61  73 SE10      29.80R
ELBOW LAKE     FAIR      69  65  88 SE8       29.76R
WADENA         PTCLDY    63  63 100 E3        29.80S
GLENWOOD       CLOUDY    70  64  83 E8        29.80R
APPLETON       CLOUDY    73  70  88 E10       29.74R FOG
BENSON         CLOUDY    75  70  83 SE8       29.77S
ORTONVILLE     PTCLDY    72  70  94 E9        29.73R FOG
MADISON        MOCLDY    73  73 100 E9        29.74R FOG
WILLMAR        CLOUDY    73  72  94 E9        29.80S
$$
MNZ033>034-036-042>043-049>051-058-059-221400-
   Central Minnesota

CITY           SKY/WX    TMP DP  RH WIND       PRES   REMARKS
ST CLOUD       CLOUDY    72  72 100 E6        29.83S
SAUK CENTRE    PTSUNNY   69  64  83 E6        29.81R
PAYNESVILLE    CLOUDY    73  71  93 E6        29.82R
AITKIN         CLOUDY    64  63  94 SE12G17   29.82R
PINE RIVER     CLOUDY    61  59  94 W3        29.85R
BRAINERD       CLOUDY    66  63  90 SE8       29.81R
STAPLES        CLOUDY    63  63 100 CALM      29.80S
LITTLE FALLS   CLOUDY    68  63  83 SE13      29.81F
LITCHFIELD     CLOUDY    75  73  94 CALM      29.82R
BUFFALO        CLOUDY    73  68  87 S6        29.82S
MAPLE LAKE     TSTM      73  71  95 W7        29.83R
HUTCHINSON     PTCLDY    73  72  95 SE7       29.81S
$$
MNZ037-044-045-052-053-221400-
   East Central Minnesota

CITY           SKY/WX    TMP DP  RH WIND       PRES   REMARKS
PRINCETON      RAIN      72  70  94 N8        29.84S
MORA           CLOUDY    66  64  94 CALM      29.93R
CAMBRIDGE      CLOUDY    75  66  73 S3        29.84R
RUSH CITY      CLOUDY    73  68  86 CALM      29.88R
MOOSE LAKE     CLOUDY    63  61  94 E3        29.85F
HINCKLEY       RAIN      70  68  94 N7        29.89R
CLOQUET        CLOUDY    64  61  88 E9        29.89F THUNDER
MCGREGOR       CLOUDY    64  63  94 E8G20     29.81F
$$
MNZ071>073-080-081-089-090-097-098-221400-
   Southwest Minnesota

CITY           SKY/WX    TMP DP  RH WIND       PRES   REMARKS
MONTEVIDEO     CLOUDY    72  72 100 SE3       29.76R FOG
GRANITE FALLS  CLOUDY    73  72  96 E5        29.77R FOG
CANBY          PTCLDY    74  71  89 NE5       29.74R
MARSHALL       PTCLDY    76  71  85 S20G28    29.73R
REDWOOD FALLS  CLOUDY    76  71  85 SE8       29.76R THUNDER
OLIVIA         CLOUDY    72  70  94 SE8       29.77R FOG
PIPESTONE      CLEAR     73  70  88 S12G20    29.77S
WORTHINGTON    CLEAR     75  70  84 S14       29.80
JACKSON        CLEAR     73  70  88 S12       29.83S
TRACY          PTCLDY    76  72  88 S13G21    29.76S
SLAYTON        PTCLDY    74  69  85 S14       29.79S
$$
MNZ065>067-074>077-082>085-091>093-221400-
   South Central Minnesota

CITY           SKY/WX    TMP DP  RH WIND       PRES   REMARKS
MANKATO        CLOUDY    75  70  84 S10       29.83R
NEW ULM        PTCLDY    73  70  88 S10       29.80R
ST JAMES       CLEAR     73  70  88 S14       29.81S
FAIRMONT       CLEAR     74  70  87 S13       29.83R
GLENCOE        CLOUDY    74  73  97 SE8       29.80F
FARIBAULT      PTCLDY    73  70  88 SE10G16   29.86R
OWATONNA       CLOUDY    73  70  88 S16       29.87R
WASECA         CLOUDY    73  68  83 S10G16    29.87R
ALBERT LEA     CLOUDY    73  72  94 S9        29.89R FOG
$$
MNZ078>079-086>088-094>096-221400-
   Southeast Minnesota

CITY           SKY/WX    TMP DP  RH WIND       PRES   REMARKS
ROCHESTER      SUNNY     72  69  90 S10       29.92R
RED WING       SUNNY     75  68  78 SE7       29.86S
STANTON        CLOUDY    76  69  78 S12G18    29.84R
DODGE CENTER   CLOUDY    73  66  78 S16       29.90S
WINONA         SUNNY     75  68  78 S3        29.92R
AUSTIN         SUNNY     72  68  88 S8        29.90S
PRESTON        SUNNY     73  67  82 S10G17    29.94S
$$
ABBREVIATIONS USED IN REMARKS
   TC - TEMPERATURES IN CELSIUS
  WCI - WIND CHILL INDEX
   HX - HEAT INDEX
  VSB - VISIBILITY
$$




USA.gov is the U.S. government's official web portal to all federal, state and local government web resources and services.